Regional Weather Roundup
Issued by NWS Wakefield, VA

Home | Current Version | Previous Version | Text Only | Print | Product List | Glossary Off
Versions: 1 2 3 4 5 6 7 8 9 10 11 12 13 14 15 16 17 18 19 20 21 22 23 24 25 26 27 28 29 30 31 32 33 34 35 36 37 38 39 40 41 42 43 44 45 46 47 48 49 50

894
ASUS41 KAKQ 200115
RWRAKQ

REGIONAL WEATHER ROUNDUP
NATIONAL WEATHER SERVICE WAKEFIELD VA
900 PM EDT WED JUL 19 2017

Note: "fair" indicates few or no clouds below 12,000 feet with no
significant weather and/or obstructions to visibility. * = Denotes
station may not report precipitation (e.g., rain,snow,etc.),
thunder or fog.

VAZ042-051-052>054-056-200200-
NORTHERN VIRGINIA

CITY           SKY/WX    TMP DP  RH WIND       PRES   REMARKS
WASH NATIONAL  PTCLDY    89  70  53 SW8       30.02R
DULLES         MOCLDY    84  70  62 CALM      30.03R
FORT BELVOIR   CLEAR     82  73  74 CALM      30.02R
QUANTICO       CLEAR     87  78  74 S7        30.03R HX 100
FREDERICKSBRG* CLEAR     84  75  74 CALM      30.02R
STAFFORD*      CLEAR     78  77  97 CALM      30.07R
WARRENTON      CLEAR     80  71  74 CALM      30.04R
CULPEPER*      CLEAR     79  74  86 CALM      30.05R
MANASSAS*      NOT AVBL
LEESBURG*      PTCLDY    86  75  70 CALM      30.04S HX  95
WINCHESTER     PTCLDY    77  70  78 CALM      30.05S
FRONT ROYAL*   CLEAR     81  72  74 CALM      30.05R
LURAY*         MOCLDY    82  70  65 CALM      30.06R
$$

VAZ048-049-060>072-079>083-200200-
CENTRAL AND SOUTH CENTRAL VIRGINIA

CITY           SKY/WX    TMP DP  RH WIND       PRES   REMARKS
RICHMOND       PTCLDY    83  69  62 S6        30.03R
CHESTERFIELD*  FAIR      82  69  64 CALM      30.04R
PETERSBURG*    CLEAR     80  69  69 CALM      30.05R
HANOVER        CLEAR     79  70  74 CALM      30.04R
TAPPAHANNOCK*  CLEAR     84  64  51 SE3       30.04R
QUINTON*       FAIR      84  71  63 CALM      30.02S
CHARLOTTSVILLE PTCLDY    84  71  65 CALM      30.05R
GORDONSVILLE*  CLEAR     80  71  73 CALM      30.05R
ORANGE*        CLEAR     77  72  83 CALM      30.04R
LOUISA*        CLEAR     75  72  88 CALM      30.05R
BUMPASS*       FAIR      79  69  72 CALM      30.04R
FARMVILLE*     CLEAR     84  63  49 W3        30.03S
CREWE*         FAIR      78  65  63 CALM      30.04S
FORT PICKETT*  FAIR     N/A N/A N/A CALM      30.05S
CHASE CITY*    FAIR      80  70  72 CALM      30.05S
CLARKSVILLE*   FAIR      79  75  89 CALM      30.05R
SOUTH HILL*    CLEAR     80  72  78 CALM      30.11R
LAWRENCEVILLE* FAIR      81  68  65 CALM      30.05S
EMPORIA*       CLEAR     79  70  73 CALM      30.06S
$$

VAZ088>098-200200-
SOUTHEAST VIRGINIA

CITY           SKY/WX    TMP DP  RH WIND       PRES   REMARKS
NORFOLK        CLEAR     82  74  76 S6        30.04S
VIRGINIA BEACH PTCLDY    80  72  76 S5        30.04R
NORFOLK NAVAL  PTCLDY    83  73  72 S6        30.06R
WEST POINT*    CLEAR     82  71  70 SE6       30.05R
SALUDA*        FAIR      81  75  83 S3        30.03S
NEWPORT NEWS   CLEAR     84  72  67 S7        30.04R
LANGLEY AFB    CLEAR     83  76  77 S6        30.04R
FORT EUSTIS    CLEAR     83  74  74 SE6       30.02R
WILLIAMSBURG*  CLEAR     86  73  66 CALM      30.04S
HR EXEC AP*    FAIR      81  72  74 S6        30.03R
FRANKLIN*      CLEAR     79  72  78 S3        30.05R
US460-WAKEFLD  CLEAR     78  71  79 CALM      30.04R
$$

VAZ020-022-025-037-045-200200-
WEST CENTRAL AND SOUTHWEST VIRGINIA

CITY           SKY/WX    TMP DP  RH WIND       PRES   REMARKS
STAUNTON*      CLEAR     82  66  59 CALM      30.11R
WAYNESBORO*    PTCLDY    80  69  67 CALM      30.11R
HOT SPRINGS VA PTCLDY    75  50  41 CALM      30.27R
LYNCHBURG      CLEAR     80  69  69 S5        30.08R
DANVILLE       CLEAR     76  74  93 CALM      30.06R
SOUTH BOSTON*  FAIR      80  76  88 CALM      30.04S
MARTINSVILLE   CLEAR     76  72  86 CALM      30.10S
ROANOKE        PTCLDY    85  64  49 CALM      30.10R
BLACKSBURG     CLEAR     76  63  64 CALM      30.18S
DUBLIN*        CLEAR     80  59  49 CALM      30.17R
MARION*        CLEAR     77  65  65 CALM      30.21R
HILLSVILLE*    PTCLDY    79  55  43 CALM      30.19R
RICHLANDS*     FAIR      78  58  50 CALM      30.20S
WISE*          PTCLDY    79  63  57 N5        30.22R
ABINGDON*      CLEAR     79  67  67 CALM      30.16S
$$

MDZ021>025-VAZ099-100-200200-
SOUTHERN MARYLAND AND THE DELMARVA PENINSULA

CITY           SKY/WX    TMP DP  RH WIND       PRES   REMARKS
PATUXENT RIVER PTCLDY    82  73  74 S5        30.02R
BAY BRIDGE APT CLEAR     86  73  66 S5        30.02R
LEONARDTOWN    NOT AVBL
DOVER          CLEAR     81  81 100 S7        30.01R
GEORGETOWN     CLEAR     79  74  84 CALM      30.03R
EASTON         PTCLDY    86  72  62 SW5       30.06R
CAMBRIDGE      CLEAR     82  72  69 CALM      30.03R
SALISBURY      CLEAR     81  75  83 S6        30.03R
OCEAN CITY     CLOUDY    79  75  87 S3        30.04R
WALLOPS ISLAND CLEAR     77  74  90 S8        30.04S
ACCOMACK*      CLEAR     78  73  84 S7        30.04S
$$

NCZ012>017-030>032-200200-
NORTH CENTRAL AND EASTERN NORTH CAROLINA

CITY           SKY/WX    TMP DP  RH WIND       PRES   REMARKS
ROANOKE RAPIDS FAIR      79  72  78 SE3       30.05S
RALEIGH        PTCLDY    84  70  62 S5        30.07R
ELIZABETH CITY PTCLDY    81  75  82 S8        30.07R
AHOSKIE*         N/A     77  74  91 CALM      30.06R
EDENTON*       PTCLDY    82  74  77 S10       30.07S
CURRITUCK*     CLEAR     82  76  82 CALM      30.07S
KILL DEVIL HLS CLEAR     80  71  74 CALM      30.07R
MANTEO         CLEAR     81  72  73 SW13      30.08R
CAPE HATTERAS  CLEAR     81  74  79 S6        30.08R
TARBORO*       NOT AVBL
GOLDSBORO      PTCLDY    80  78  93 S6        30.06R
WASHINGTON     CLEAR     77  71  82 S5        30.08R
GREENVILLE     PTCLDY    79  70  73 S10       30.09R
NEW BERN       PTCLDY    75  74  96 CALM      30.09R
WILMINGTON     PTCLDY    74  73  97 CALM      30.07F
$$

VAZ048-200200-
ELSEWHERE

CITY           SKY/WX    TMP DP  RH WIND       PRES   REMARKS
HARRISBURG PA  MOCLDY    77  73  87 NW3       30.00S
BALTIMORE      PTCLDY    85  76  74 S3        30.01R
ANNAPOLIS      CLEAR     83  79  88 S5        30.02R
ANDREWS AFB    CLEAR     84  70  61 SW6       30.02R
PHILADELPHIA   MOCLDY    86  71  60 SW8       30.01R
HENDERSON NC   CLEAR     76  67  72 S3        30.06S
GREENSBORO     PTCLDY    84  71  65 SW5       30.08R
ROCKY MOUNT    CLEAR     78  76  93 CALM      30.06R
$$

VAZ100-200200-
MARINE

STATION/POSITION TIME  TEMP    WIND        PRES    WAVE   SWELL
                       AIR SEA DIR/SP/G            HT/PER HT/PER
                 (UTC) (F)     (DEG/KT/KT) (MB)    (FT/S) (FT/S)
BRANDYWINE LGT   0048          230/ 11/ 12 1016.9R
CAPE MAY NJ      0048   77 75  170/  7/  9 1016.0R
LEWES DE         0048   81 75  200/  4/  6 1016.4R
15NM E FENWICK I 0050   78 78  200/ 14/ 16 1017.1S   2/16   2/16
OCEAN-CITY-INLET 0048   74 71  220/ 10/ 11 1017.5R
WACHAPREAGUE VA  0048   79 86  200/  5/  8 1017.4R
THOMAS POINT MD  0100   84 82  180/ 12/ 13   N/A
GOOSES REEF MD   0050   85     220/ 10/ 12 1017.2R
COVE POINT MD    0048   84     200/  9/ 11 1017.4R
SOLOMONS ISLAND  0048   85 86  180/  5/  5   N/A
BISHOPS HEAD MD  0048   85     190/ 10/ 12 1016.9R
PINEY POINT MD   0042          190/ 10/ 11   N/A
POTOMAC MD       0050   84     200/ 12/ 14 1015.9R
CAMBRIDGE MD     0048                      1017.6R
LEWISETTA VA     0048   83 86  190/  7/  9 1016.7R
RAPPAHANNOCK LGT 0048          160/ 12/ 13 1017.8R
STINGRAY PT      0050   83     190/ 12/ 14 1017.1F
YORK RVR RNG VA  0048   83     160/ 13/ 14 1017.3R
YORKTOWN VA      0048   84 86  170/  4/  5 1016.7R
JAMESTOWN VA     0050          170/  6/  8   N/A
DOMINION TERM VA 0048   84     170/  9/ 10 1017.3R
KIPTOPEKE VA     0048      78  170/ 12/ 14   N/A
CHES BAY BRIDGE  0048   81 72  180/ 10/ 12 1017.2S
CAPE HENRY VA    0048   79     170/  8/  9   N/A
WILLOUBY STN VA  0048   83     170/ 11/ 13 1017.1S
S CRANEY ISL VA  0048   84     220/  5/  8 1017.1R
CAPE HENRY BUOY  0030      76                N/A     2/17   2/17
1ST LANDING BUOY 0050   81                 1017.0R
64NM E OF VA BCH 2350   80 81  210/ 12/ 14 1018.0    2/ 6   2/ 6
DUCK PIER NC     0048   81 61  190/ 11/ 13 1017.7R
44100 DUCK FRF   0005      77                N/A     2/15   2/15
44056 DUCK FRF   0030      70                N/A     2/17   2/17
OREGON INLET NC  0042   79 78  190/  9/  9 1018.4R
HATTERAS NC      0048   81 80  200/  2/  5 1018.5R
DIAMOND SHLS NC  0050   82 85  190/ 12/ 12 1018.4R   2/ 8   2/ 8
CAPE LOOKOUT NC  0100   80     160/  6/  7 1018.3R
$$




USA.gov is the U.S. government's official web portal to all federal, state and local government web resources and services.